"FRM_AIS_EDR_2491.DAT           ",2005-12-21T04:29:46.83 ,"1/0083219382.01489",    0,    0,  305440,"AIS","B1","B2","B1","B2","PISd",0,0,0,0,"B1", 0,15,   0, 0,    0,"AIS","N/A    ","OK ","OK ",    001326.162,    -033.035,    -004.403,    0021.975,    0130.589
"FRM_AIS_EDR_2491.DAT           ",2005-12-21T04:29:54.38 ,"1/0083219389.37088",    0,    1,  305440,"AIS","B1","B2","B1","B2","PISd",0,0,0,0,"B1", 0,15,   0, 0,    0,"AIS","N/A    ","OK ","OK ",    001315.337,    -033.340,    -004.408,    0021.977,    0130.373
"FRM_AIS_EDR_2491.DAT           ",2005-12-21T04:30:01.92 ,"1/0083219397.07152",    0,    2,  305440,"AIS","B1","B2","B1","B2","PISd",0,0,0,0,"B1", 0,15,   0, 0,    0,"AIS","N/A    ","OK ","OK ",    001304.537,    -033.646,    -004.412,    0021.979,    0130.156
"FRM_AIS_EDR_2491.DAT           ",2005-12-21T04:30:09.46 ,"1/0083219404.42751",    0,    3,  305440,"AIS","B1","B2","B1","B2","PISd",0,0,0,0,"B1", 0,15,   0, 0,    0,"AIS","N/A    ","OK ","OK ",    001293.763,    -033.954,    -004.417,    0021.980,    0129.936
"FRM_AIS_EDR_2491.DAT           ",2005-12-21T04:30:17.01 ,"1/0083219412.12815",    0,    4,  305440,"AIS","B1","B2","B1","B2","PISd",0,0,0,0,"B1", 0,15,   0, 0,    0,"AIS","N/A    ","OK ","OK ",    001283.015,    -034.263,    -004.421,    0021.982,    0129.715
"FRM_AIS_EDR_2491.DAT           ",2005-12-21T04:30:24.55 ,"1/0083219419.48414",    0,    5,  305440,"AIS","B1","B2","B1","B2","PISd",0,0,0,0,"B1", 0,15,   0, 0,    0,"AIS","N/A    ","OK ","OK ",    001272.293,    -034.574,    -004.424,    0021.984,    0129.492
"FRM_AIS_EDR_2491.DAT           ",2005-12-21T04:30:32.09 ,"1/0083219427.18477",    0,    6,  305440,"AIS","B1","B2","B1","B2","PISd",0,0,0,0,"B1", 0,15,   0, 0,    0,"AIS","N/A    ","OK ","OK ",    001261.599,    -034.886,    -004.428,    0021.986,    0129.268
"FRM_AIS_EDR_2491.DAT           ",2005-12-21T04:30:39.64 ,"1/0083219434.54077",    0,    7,  305440,"AIS","B1","B2","B1","B2","PISd",0,0,0,0,"B1", 0,15,   0, 0,    0,"AIS","N/A    ","OK ","OK ",    001250.933,    -035.199,    -004.431,    0021.988,    0129.041
"FRM_AIS_EDR_2491.DAT           ",2005-12-21T04:30:47.18 ,"1/0083219442.24140",    0,    8,  305440,"AIS","B1","B2","B1","B2","PISd",0,0,0,0,"B1", 0,15,   0, 0,    0,"AIS","N/A    ","OK ","OK ",    001240.294,    -035.514,    -004.433,    0021.989,    0128.813
"FRM_AIS_EDR_2491.DAT           ",2005-12-21T04:30:54.72 ,"1/0083219449.59739",    0,    9,  305440,"AIS","B1","B2","B1","B2","PISd",0,0,0,0,"B1", 0,15,   0, 0,    0,"AIS","N/A    ","OK ","OK ",    001229.684,    -035.830,    -004.436,    0021.991,    0128.584
"FRM_AIS_EDR_2491.DAT           ",2005-12-21T04:31:02.27 ,"1/0083219457.29803",    0,   10,  305440,"AIS","B1","B2","B1","B2","PISd",0,0,0,0,"B1", 0,15,   0, 0,    0,"AIS","N/A    ","OK ","OK ",    001219.103,    -036.148,    -004.438,    0021.993,    0128.352
"FRM_AIS_EDR_2491.DAT           ",2005-12-21T04:31:09.81 ,"1/0083219464.65402",    0,   11,  305440,"AIS","B1","B2","B1","B2","PISd",0,0,0,0,"B1", 0,15,   0, 0,    0,"AIS","N/A    ","OK ","OK ",    001208.551,    -036.468,    -004.439,    0021.995,    0128.119
"FRM_AIS_EDR_2491.DAT           ",2005-12-21T04:31:17.35 ,"1/0083219472.35466",    0,   12,  305440,"AIS","B1","B2","B1","B2","PISd",0,0,0,0,"B1", 0,15,   0, 0,    0,"AIS","N/A    ","OK ","OK ",    001198.029,    -036.788,    -004.441,    0021.997,    0127.884
"FRM_AIS_EDR_2491.DAT           ",2005-12-21T04:31:24.90 ,"1/0083219480.05529",    0,   13,  305440,"AIS","B1","B2","B1","B2","PISd",0,0,0,0,"B1", 0,15,   0, 0,    0,"AIS","N/A    ","OK ","OK ",    001187.537,    -037.111,    -004.442,    0021.999,    0127.648
"FRM_AIS_EDR_2491.DAT           ",2005-12-21T04:31:32.44 ,"1/0083219487.41128",    0,   14,  305440,"AIS","B1","B2","B1","B2","PISd",0,0,0,0,"B1", 0,15,   0, 0,    0,"AIS","N/A    ","OK ","OK ",    001177.076,    -037.434,    -004.442,    0022.001,    0127.410
"FRM_AIS_EDR_2491.DAT           ",2005-12-21T04:31:39.98 ,"1/0083219495.11192",    0,   15,  305440,"AIS","B1","B2","B1","B2","PISd",0,0,0,0,"B1", 0,15,   0, 0,    0,"AIS","N/A    ","OK ","OK ",    001166.646,    -037.760,    -004.442,    0022.003,    0127.170
"FRM_AIS_EDR_2491.DAT           ",2005-12-21T04:31:47.53 ,"1/0083219502.46791",    0,   16,  305440,"AIS","B1","B2","B1","B2","PISd",0,0,0,0,"B1", 0,15,   0, 0,    0,"AIS","N/A    ","OK ","OK ",    001156.248,    -038.086,    -004.442,    0022.005,    0126.928
"FRM_AIS_EDR_2491.DAT           ",2005-12-21T04:31:55.07 ,"1/0083219510.16854",    0,   17,  305440,"AIS","B1","B2","B1","B2","PISd",0,0,0,0,"B1", 0,15,   0, 0,    0,"AIS","N/A    ","OK ","OK ",    001145.882,    -038.415,    -004.441,    0022.007,    0126.684
"FRM_AIS_EDR_2491.DAT           ",2005-12-21T04:32:02.61 ,"1/0083219517.52454",    0,   18,  305440,"AIS","B1","B2","B1","B2","PISd",0,0,0,0,"B1", 0,15,   0, 0,    0,"AIS","N/A    ","OK ","OK ",    001135.549,    -038.744,    -004.440,    0022.009,    0126.439
"FRM_AIS_EDR_2491.DAT           ",2005-12-21T04:32:10.16 ,"1/0083219525.22517",    0,   19,  305440,"AIS","B1","B2","B1","B2","PISd",0,0,0,0,"B1", 0,15,   0, 0,    0,"AIS","N/A    ","OK ","OK ",    001125.249,    -039.076,    -004.438,    0022.011,    0126.192
"FRM_AIS_EDR_2491.DAT           ",2005-12-21T04:32:17.70 ,"1/0083219532.58117",    0,   20,  305440,"AIS","B1","B2","B1","B2","PISd",0,0,0,0,"B1", 0,15,   0, 0,    0,"AIS","N/A    ","OK ","OK ",    001114.982,    -039.408,    -004.436,    0022.014,    0125.944
"FRM_AIS_EDR_2491.DAT           ",2005-12-21T04:32:25.24 ,"1/0083219540.28180",    0,   21,  305440,"AIS","B1","B2","B1","B2","PISd",0,0,0,0,"B1", 0,15,   0, 0,    0,"AIS","N/A    ","OK ","OK ",    001104.750,    -039.743,    -004.433,    0022.016,    0125.693
"FRM_AIS_EDR_2491.DAT           ",2005-12-21T04:32:32.78 ,"1/0083219547.63779",    0,   22,  305440,"AIS","B1","B2","B1","B2","PISd",0,0,0,0,"B1", 0,15,   0, 0,    0,"AIS","N/A    ","OK ","OK ",    001094.552,    -040.078,    -004.430,    0022.018,    0125.441
"FRM_AIS_EDR_2491.DAT           ",2005-12-21T04:32:40.33 ,"1/0083219555.33843",    0,   23,  305440,"AIS","B1","B2","B1","B2","PISd",0,0,0,0,"B1", 0,15,   0, 0,    0,"AIS","N/A    ","OK ","OK ",    001084.389,    -040.416,    -004.427,    0022.020,    0125.187
"FRM_AIS_EDR_2491.DAT           ",2005-12-21T04:32:47.87 ,"1/0083219563.03906",    0,   24,  305440,"AIS","B1","B2","B1","B2","PISd",0,0,0,0,"B1", 0,15,   0, 0,    0,"AIS","N/A    ","OK ","OK ",    001074.262,    -040.755,    -004.423,    0022.023,    0124.931
"FRM_AIS_EDR_2491.DAT           ",2005-12-21T04:32:55.41 ,"1/0083219570.39505",    0,   25,  305440,"AIS","B1","B2","B1","B2","PISd",0,0,0,0,"B1", 0,15,   0, 0,    0,"AIS","N/A    ","OK ","OK ",    001064.172,    -041.095,    -004.418,    0022.025,    0124.674
"FRM_AIS_EDR_2491.DAT           ",2005-12-21T04:33:02.96 ,"1/0083219578.09569",    0,   26,  305440,"AIS","B1","B2","B1","B2","PISd",0,0,0,0,"B1", 0,15,   0, 0,    0,"AIS","N/A    ","OK ","OK ",    001054.117,    -041.437,    -004.413,    0022.027,    0124.415
"FRM_AIS_EDR_2491.DAT           ",2005-12-21T04:33:10.50 ,"1/0083219585.45168",    0,   27,  305440,"AIS","B1","B2","B1","B2","PISd",0,0,0,0,"B1", 0,15,   0, 0,    0,"AIS","N/A    ","OK ","OK ",    001044.101,    -041.781,    -004.407,    0022.030,    0124.154
"FRM_AIS_EDR_2491.DAT           ",2005-12-21T04:33:18.04 ,"1/0083219593.15232",    0,   28,  305440,"AIS","B1","B2","B1","B2","PISd",0,0,0,0,"B1", 0,15,   0, 0,    0,"AIS","N/A    ","OK ","OK ",    001034.121,    -042.126,    -004.401,    0022.032,    0123.891
"FRM_AIS_EDR_2491.DAT           ",2005-12-21T04:33:25.59 ,"1/0083219600.50831",    0,   29,  305440,"AIS","B1","B2","B1","B2","PISd",0,0,0,0,"B1", 0,15,   0, 0,    0,"AIS","N/A    ","OK ","OK ",    001024.180,    -042.472,    -004.394,    0022.035,    0123.626
"FRM_AIS_EDR_2491.DAT           ",2005-12-21T04:33:33.13 ,"1/0083219608.20894",    0,   30,  305440,"AIS","B1","B2","B1","B2","PISd",0,0,0,0,"B1", 0,15,   0, 0,    0,"AIS","N/A    ","OK ","OK ",    001014.278,    -042.821,    -004.387,    0022.037,    0123.360
"FRM_AIS_EDR_2491.DAT           ",2005-12-21T04:33:40.67 ,"1/0083219615.56494",    0,   31,  305440,"AIS","B1","B2","B1","B2","PISd",0,0,0,0,"B1", 0,15,   0, 0,    0,"AIS","N/A    ","OK ","OK ",    001004.415,    -043.170,    -004.379,    0022.040,    0123.092
"FRM_AIS_EDR_2491.DAT           ",2005-12-21T04:33:48.22 ,"1/0083219623.26557",    0,   32,  305440,"AIS","B1","B2","B1","B2","PISd",0,0,0,0,"B1", 0,15,   0, 0,    0,"AIS","N/A    ","OK ","OK ",    000994.592,    -043.522,    -004.370,    0022.043,    0122.822
"FRM_AIS_EDR_2491.DAT           ",2005-12-21T04:33:55.76 ,"1/0083219630.62156",    0,   33,  305440,"AIS","B1","B2","B1","B2","PISd",0,0,0,0,"B1", 0,15,   0, 0,    0,"AIS","N/A    ","OK ","OK ",    000984.810,    -043.875,    -004.361,    0022.045,    0122.551
"FRM_AIS_EDR_2491.DAT           ",2005-12-21T04:34:03.30 ,"1/0083219638.32220",    0,   34,  305440,"AIS","B1","B2","B1","B2","PISd",0,0,0,0,"B1", 0,15,   0, 0,    0,"AIS","N/A    ","OK ","OK ",    000975.068,    -044.229,    -004.351,    0022.048,    0122.278
"FRM_AIS_EDR_2491.DAT           ",2005-12-21T04:34:10.85 ,"1/0083219646.02283",    0,   35,  305440,"AIS","B1","B2","B1","B2","PISd",0,0,0,0,"B1", 0,15,   0, 0,    0,"AIS","N/A    ","OK ","OK ",    000965.367,    -044.585,    -004.340,    0022.051,    0122.002
"FRM_AIS_EDR_2491.DAT           ",2005-12-21T04:34:18.39 ,"1/0083219653.37883",    0,   36,  305440,"AIS","B1","B2","B1","B2","PISd",0,0,0,0,"B1", 0,15,   0, 0,    0,"AIS","N/A    ","OK ","OK ",    000955.709,    -044.943,    -004.329,    0022.053,    0121.726
"FRM_AIS_EDR_2491.DAT           ",2005-12-21T04:34:25.93 ,"1/0083219661.07946",    0,   37,  305440,"AIS","B1","B2","B1","B2","PISd",0,0,0,0,"B1", 0,15,   0, 0,    0,"AIS","N/A    ","OK ","OK ",    000946.094,    -045.302,    -004.317,    0022.056,    0121.447
"FRM_AIS_EDR_2491.DAT           ",2005-12-21T04:34:33.48 ,"1/0083219668.43545",    0,   38,  305440,"AIS","B1","B2","B1","B2","PISd",0,0,0,0,"B1", 0,15,   0, 0,    0,"AIS","N/A    ","OK ","OK ",    000936.521,    -045.663,    -004.304,    0022.059,    0121.167
"FRM_AIS_EDR_2491.DAT           ",2005-12-21T04:34:41.02 ,"1/0083219676.13609",    0,   39,  305440,"AIS","B1","B2","B1","B2","PISd",0,0,0,0,"B1", 0,15,   0, 0,    0,"AIS","N/A    ","OK ","OK ",    000926.992,    -046.026,    -004.291,    0022.062,    0120.884
"FRM_AIS_EDR_2491.DAT           ",2005-12-21T04:34:48.56 ,"1/0083219683.49208",    0,   40,  305440,"AIS","B1","B2","B1","B2","PISd",0,0,0,0,"B1", 0,15,   0, 0,    0,"AIS","N/A    ","OK ","OK ",    000917.508,    -046.390,    -004.277,    0022.065,    0120.600
"FRM_AIS_EDR_2491.DAT           ",2005-12-21T04:34:56.11 ,"1/0083219691.19271",    0,   41,  305440,"AIS","B1","B2","B1","B2","PISd",0,0,0,0,"B1", 0,15,   0, 0,    0,"AIS","N/A    ","OK ","OK ",    000908.068,    -046.756,    -004.261,    0022.068,    0120.315
"FRM_AIS_EDR_2491.DAT           ",2005-12-21T04:35:03.65 ,"1/0083219698.54871",    0,   42,  305440,"AIS","B1","B2","B1","B2","PISd",0,0,0,0,"B1", 0,15,   0, 0,    0,"AIS","N/A    ","OK ","OK ",    000898.674,    -047.123,    -004.245,    0022.071,    0120.027
"FRM_AIS_EDR_2491.DAT           ",2005-12-21T04:35:11.19 ,"1/0083219706.24934",    0,   43,  305440,"AIS","B1","B2","B1","B2","PISd",0,0,0,0,"B1", 0,15,   0, 0,    0,"AIS","N/A    ","OK ","OK ",    000889.326,    -047.492,    -004.229,    0022.074,    0119.738
"FRM_AIS_EDR_2491.DAT           ",2005-12-21T04:35:18.74 ,"1/0083219713.60533",    0,   44,  305440,"AIS","B1","B2","B1","B2","PISd",0,0,0,0,"B1", 0,15,   0, 0,    0,"AIS","N/A    ","OK ","OK ",    000880.024,    -047.863,    -004.211,    0022.078,    0119.447
"FRM_AIS_EDR_2491.DAT           ",2005-12-21T04:35:26.28 ,"1/0083219721.30597",    0,   45,  305440,"AIS","B1","B2","B1","B2","PISd",0,0,0,0,"B1", 0,15,   0, 0,    0,"AIS","N/A    ","OK ","OK ",    000870.769,    -048.235,    -004.192,    0022.081,    0119.154
"FRM_AIS_EDR_2491.DAT           ",2005-12-21T04:35:33.82 ,"1/0083219729.00660",    0,   46,  305440,"AIS","B1","B2","B1","B2","PISd",0,0,0,0,"B1", 0,15,   0, 0,    0,"AIS","N/A    ","OK ","OK ",    000861.562,    -048.608,    -004.173,    0022.084,    0118.860
"FRM_AIS_EDR_2491.DAT           ",2005-12-21T04:35:41.36 ,"1/0083219736.36260",    0,   47,  305440,"AIS","B1","B2","B1","B2","PISd",0,0,0,0,"B1", 0,15,   0, 0,    0,"AIS","N/A    ","OK ","OK ",    000852.404,    -048.984,    -004.152,    0022.087,    0118.563
"FRM_AIS_EDR_2491.DAT           ",2005-12-21T04:35:48.91 ,"1/0083219744.06323",    0,   48,  305440,"AIS","B1","B2","B1","B2","PISd",0,0,0,0,"B1", 0,15,   0, 0,    0,"AIS","N/A    ","OK ","OK ",    000843.294,    -049.361,    -004.131,    0022.091,    0118.265
"FRM_AIS_EDR_2491.DAT           ",2005-12-21T04:35:56.45 ,"1/0083219751.41922",    0,   49,  305440,"AIS","B1","B2","B1","B2","PISd",0,0,0,0,"B1", 0,15,   0, 0,    0,"AIS","N/A    ","OK ","OK ",    000834.234,    -049.739,    -004.108,    0022.095,    0117.966
"FRM_AIS_EDR_2491.DAT           ",2005-12-21T04:36:03.99 ,"1/0083219759.11986",    0,   50,  305440,"AIS","B1","B2","B1","B2","PISd",0,0,0,0,"B1", 0,15,   0, 0,    0,"AIS","N/A    ","OK ","OK ",    000825.224,    -050.120,    -004.085,    0022.098,    0117.664
"FRM_AIS_EDR_2491.DAT           ",2005-12-21T04:36:11.54 ,"1/0083219766.47585",    0,   51,  305440,"AIS","B1","B2","B1","B2","PISd",0,0,0,0,"B1", 0,15,   0, 0,    0,"AIS","N/A    ","OK ","OK ",    000816.265,    -050.502,    -004.060,    0022.102,    0117.361
"FRM_AIS_EDR_2491.DAT           ",2005-12-21T04:36:19.08 ,"1/0083219774.17648",    0,   52,  305440,"AIS","B1","B2","B1","B2","PISd",0,0,0,0,"B1", 0,15,   0, 0,    0,"AIS","N/A    ","OK ","OK ",    000807.357,    -050.885,    -004.034,    0022.106,    0117.056
"FRM_AIS_EDR_2491.DAT           ",2005-12-21T04:36:26.62 ,"1/0083219781.53248",    0,   53,  305440,"AIS","B1","B2","B1","B2","PISd",0,0,0,0,"B1", 0,15,   0, 0,    0,"AIS","N/A    ","OK ","OK ",    000798.501,    -051.270,    -004.007,    0022.109,    0116.749
"FRM_AIS_EDR_2491.DAT           ",2005-12-21T04:36:34.17 ,"1/0083219789.23311",    0,   54,  305440,"AIS","B1","B2","B1","B2","PISd",0,0,0,0,"B1", 0,15,   0, 0,    0,"AIS","N/A    ","OK ","OK ",    000789.697,    -051.657,    -003.978,    0022.113,    0116.440
"FRM_AIS_EDR_2491.DAT           ",2005-12-21T04:36:41.71 ,"1/0083219796.58910",    0,   55,  305440,"AIS","B1","B2","B1","B2","PISd",0,0,0,0,"B1", 0,15,   0, 0,    0,"AIS","N/A    ","OK ","OK ",    000780.947,    -052.045,    -003.949,    0022.117,    0116.130
"FRM_AIS_EDR_2491.DAT           ",2005-12-21T04:36:49.25 ,"1/0083219804.28974",    0,   56,  305440,"AIS","B1","B2","B1","B2","PISd",0,0,0,0,"B1", 0,15,   0, 0,    0,"AIS","N/A    ","OK ","OK ",    000772.250,    -052.435,    -003.918,    0022.122,    0115.818
"FRM_AIS_EDR_2491.DAT           ",2005-12-21T04:36:56.80 ,"1/0083219811.64573",    0,   57,  305440,"AIS","B1","B2","B1","B2","PISd",0,0,0,0,"B1", 0,15,   0, 0,    0,"AIS","N/A    ","OK ","OK ",    000763.608,    -052.827,    -003.886,    0022.126,    0115.504
"FRM_AIS_EDR_2491.DAT           ",2005-12-21T04:37:04.34 ,"1/0083219819.34636",    0,   58,  305440,"AIS","B1","B2","B1","B2","PISd",0,0,0,0,"B1", 0,15,   0, 0,    0,"AIS","N/A    ","OK ","OK ",    000755.021,    -053.220,    -003.852,    0022.130,    0115.188
"FRM_AIS_EDR_2491.DAT           ",2005-12-21T04:37:11.88 ,"1/0083219827.04700",    0,   59,  305440,"AIS","B1","B2","B1","B2","PISd",0,0,0,0,"B1", 0,15,   0, 0,    0,"AIS","N/A    ","OK ","OK ",    000746.489,    -053.615,    -003.817,    0022.134,    0114.871
"FRM_AIS_EDR_2491.DAT           ",2005-12-21T04:37:19.43 ,"1/0083219834.40299",    0,   60,  305440,"AIS","B1","B2","B1","B2","PISd",0,0,0,0,"B1", 0,15,   0, 0,    0,"AIS","N/A    ","OK ","OK ",    000738.013,    -054.011,    -003.780,    0022.139,    0114.552
"FRM_AIS_EDR_2491.DAT           ",2005-12-21T04:37:26.97 ,"1/0083219842.10362",    0,   61,  305440,"AIS","B1","B2","B1","B2","PISd",0,0,0,0,"B1", 0,15,   0, 0,    0,"AIS","N/A    ","OK ","OK ",    000729.595,    -054.409,    -003.742,    0022.144,    0114.231
"FRM_AIS_EDR_2491.DAT           ",2005-12-21T04:37:34.51 ,"1/0083219849.45962",    0,   62,  305440,"AIS","B1","B2","B1","B2","PISd",0,0,0,0,"B1", 0,15,   0, 0,    0,"AIS","N/A    ","OK ","OK ",    000721.233,    -054.809,    -003.702,    0022.148,    0113.909
"FRM_AIS_EDR_2491.DAT           ",2005-12-21T04:37:42.06 ,"1/0083219857.16025",    0,   63,  305440,"AIS","B1","B2","B1","B2","PISd",0,0,0,0,"B1", 0,15,   0, 0,    0,"AIS","N/A    ","OK ","OK ",    000712.930,    -055.210,    -003.660,    0022.153,    0113.585
"FRM_AIS_EDR_2491.DAT           ",2005-12-21T04:37:49.60 ,"1/0083219864.51625",    0,   64,  305440,"AIS","B1","B2","B1","B2","PISd",0,0,0,0,"B1", 0,15,   0, 0,    0,"AIS","N/A    ","OK ","OK ",    000704.686,    -055.613,    -003.617,    0022.158,    0113.259
"FRM_AIS_EDR_2491.DAT           ",2005-12-21T04:37:57.14 ,"1/0083219872.21688",    0,   65,  305440,"AIS","B1","B2","B1","B2","PISd",0,0,0,0,"B1", 0,15,   0, 0,    0,"AIS","N/A    ","OK ","OK ",    000696.501,    -056.018,    -003.572,    0022.163,    0112.931
"FRM_AIS_EDR_2491.DAT           ",2005-12-21T04:38:04.69 ,"1/0083219879.57287",    0,   66,  305440,"AIS","B1","B2","B1","B2","PISd",0,0,0,0,"B1", 0,15,   0, 0,    0,"AIS","N/A    ","OK ","OK ",    000688.375,    -056.424,    -003.524,    0022.168,    0112.602
"FRM_AIS_EDR_2491.DAT           ",2005-12-21T04:38:12.23 ,"1/0083219887.27351",    0,   67,  305440,"AIS","B1","B2","B1","B2","PISd",0,0,0,0,"B1", 0,15,   0, 0,    0,"AIS","N/A    ","OK ","OK ",    000680.311,    -056.831,    -003.475,    0022.174,    0112.271
"FRM_AIS_EDR_2491.DAT           ",2005-12-21T04:38:19.77 ,"1/0083219894.62950",    0,   68,  305440,"AIS","B1","B2","B1","B2","PISd",0,0,0,0,"B1", 0,15,   0, 0,    0,"AIS","N/A    ","OK ","OK ",    000672.307,    -057.241,    -003.424,    0022.179,    0111.938
"FRM_AIS_EDR_2491.DAT           ",2005-12-21T04:38:27.32 ,"1/0083219902.33013",    0,   69,  305440,"AIS","B1","B2","B1","B2","PISd",0,0,0,0,"B1", 0,15,   0, 0,    0,"AIS","N/A    ","OK ","OK ",    000664.366,    -057.652,    -003.370,    0022.185,    0111.604
"FRM_AIS_EDR_2491.DAT           ",2005-12-21T04:38:34.86 ,"1/0083219910.03077",    0,   70,  305440,"AIS","B1","B2","B1","B2","PISd",0,0,0,0,"B1", 0,15,   0, 0,    0,"AIS","N/A    ","OK ","OK ",    000656.487,    -058.064,    -003.315,    0022.190,    0111.268
"FRM_AIS_EDR_2491.DAT           ",2005-12-21T04:38:42.40 ,"1/0083219917.38676",    0,   71,  305440,"AIS","B1","B2","B1","B2","PISd",0,0,0,0,"B1", 0,15,   0, 0,    0,"AIS","N/A    ","OK ","OK ",    000648.671,    -058.478,    -003.257,    0022.196,    0110.930
"FRM_AIS_EDR_2491.DAT           ",2005-12-21T04:38:49.94 ,"1/0083219925.08739",    0,   72,  305440,"AIS","B1","B2","B1","B2","PISd",0,0,0,0,"B1", 0,15,   0, 0,    0,"AIS","N/A    ","OK ","OK ",    000640.919,    -058.893,    -003.196,    0022.202,    0110.591
"FRM_AIS_EDR_2491.DAT           ",2005-12-21T04:38:57.49 ,"1/0083219932.44339",    0,   73,  305440,"AIS","B1","B2","B1","B2","PISd",0,0,0,0,"B1", 0,15,   0, 0,    0,"AIS","N/A    ","OK ","OK ",    000633.231,    -059.310,    -003.133,    0022.209,    0110.250
"FRM_AIS_EDR_2491.DAT           ",2005-12-21T04:39:05.03 ,"1/0083219940.14402",    0,   74,  305440,"AIS","B1","B2","B1","B2","PISd",0,0,0,0,"B1", 0,15,   0, 0,    0,"AIS","N/A    ","OK ","OK ",    000625.609,    -059.729,    -003.067,    0022.215,    0109.907
"FRM_AIS_EDR_2491.DAT           ",2005-12-21T04:39:12.57 ,"1/0083219947.50001",    0,   75,  305440,"AIS","B1","B2","B1","B2","PISd",0,0,0,0,"B1", 0,15,   0, 0,    0,"AIS","N/A    ","OK ","OK ",    000618.052,    -060.149,    -002.998,    0022.222,    0109.563
"FRM_AIS_EDR_2491.DAT           ",2005-12-21T04:39:20.12 ,"1/0083219955.20065",    0,   76,  305440,"AIS","B1","B2","B1","B2","PISd",0,0,0,0,"B1", 0,15,   0, 0,    0,"AIS","N/A    ","OK ","OK ",    000610.561,    -060.571,    -002.927,    0022.228,    0109.217
"FRM_AIS_EDR_2491.DAT           ",2005-12-21T04:39:27.66 ,"1/0083219962.55664",    0,   77,  305440,"AIS","B1","B2","B1","B2","PISd",0,0,0,0,"B1", 0,15,   0, 0,    0,"AIS","N/A    ","OK ","OK ",    000603.137,    -060.994,    -002.852,    0022.236,    0108.869
"FRM_AIS_EDR_2491.DAT           ",2005-12-21T04:39:35.20 ,"1/0083219970.25727",    0,   78,  305440,"AIS","B1","B2","B1","B2","PISd",0,0,0,0,"B1", 0,15,   0, 0,    0,"AIS","N/A    ","OK ","OK ",    000595.781,    -061.419,    -002.774,    0022.243,    0108.520
"FRM_AIS_EDR_2491.DAT           ",2005-12-21T04:39:42.75 ,"1/0083219977.61327",    0,   79,  305440,"AIS","B1","B2","B1","B2","PISd",0,0,0,0,"B1", 0,15,   0, 0,    0,"AIS","N/A    ","OK ","OK ",    000588.493,    -061.845,    -002.692,    0022.250,    0108.170
"FRM_AIS_EDR_2491.DAT           ",2005-12-21T04:39:50.29 ,"1/0083219985.31390",    0,   80,  305440,"AIS","B1","B2","B1","B2","PISd",0,0,0,0,"B1", 0,15,   0, 0,    0,"AIS","N/A    ","OK ","OK ",    000581.274,    -062.273,    -002.607,    0022.258,    0107.817
"FRM_AIS_EDR_2491.DAT           ",2005-12-21T04:39:57.83 ,"1/0083219993.01453",    0,   81,  305440,"AIS","B1","B2","B1","B2","PISd",0,0,0,0,"B1", 0,15,   0, 0,    0,"AIS","N/A    ","OK ","OK ",    000574.125,    -062.702,    -002.518,    0022.266,    0107.463
"FRM_AIS_EDR_2491.DAT           ",2005-12-21T04:40:05.38 ,"1/0083220000.37053",    0,   82,  305440,"AIS","B1","B2","B1","B2","PISd",0,0,0,0,"B1", 0,15,   0, 0,    0,"AIS","N/A    ","OK ","OK ",    000567.046,    -063.133,    -002.425,    0022.274,    0107.108
"FRM_AIS_EDR_2491.DAT           ",2005-12-21T04:40:12.92 ,"1/0083220008.07116",    0,   83,  305440,"AIS","B1","B2","B1","B2","PISd",0,0,0,0,"B1", 0,15,   0, 0,    0,"AIS","N/A    ","OK ","OK ",    000560.037,    -063.565,    -002.328,    0022.282,    0106.751
"FRM_AIS_EDR_2491.DAT           ",2005-12-21T04:40:20.46 ,"1/0083220015.42715",    0,   84,  305440,"AIS","B1","B2","B1","B2","PISd",0,0,0,0,"B1", 0,15,   0, 0,    0,"AIS","N/A    ","OK ","OK ",    000553.100,    -063.998,    -002.227,    0022.291,    0106.392
"FRM_AIS_EDR_2491.DAT           ",2005-12-21T04:40:28.01 ,"1/0083220023.12779",    0,   85,  305440,"AIS","B1","B2","B1","B2","PISd",0,0,0,0,"B1", 0,15,   0, 0,    0,"AIS","N/A    ","OK ","OK ",    000546.234,    -064.433,    -002.121,    0022.301,    0106.032
"FRM_AIS_EDR_2491.DAT           ",2005-12-21T04:40:35.55 ,"1/0083220030.48378",    0,   86,  305440,"AIS","B1","B2","B1","B2","PISd",0,0,0,0,"B1", 0,15,   0, 0,    0,"AIS","N/A    ","OK ","OK ",    000539.442,    -064.870,    -002.010,    0022.310,    0105.670
"FRM_AIS_EDR_2491.DAT           ",2005-12-21T04:40:43.09 ,"1/0083220038.18442",    0,   87,  305440,"AIS","B1","B2","B1","B2","PISd",0,0,0,0,"B1", 0,15,   0, 0,    0,"AIS","N/A    ","OK ","OK ",    000532.723,    -065.308,    -001.894,    0022.320,    0105.307
"FRM_AIS_EDR_2491.DAT           ",2005-12-21T04:40:50.64 ,"1/0083220045.54041",    0,   88,  305440,"AIS","B1","B2","B1","B2","PISd",0,0,0,0,"B1", 0,15,   0, 0,    0,"AIS","N/A    ","OK ","OK ",    000526.077,    -065.747,    -001.772,    0022.330,    0104.943
"FRM_AIS_EDR_2491.DAT           ",2005-12-21T04:40:58.18 ,"1/0083220053.24104",    0,   89,  305440,"AIS","B1","B2","B1","B2","PISd",0,0,0,0,"B1", 0,15,   0, 0,    0,"AIS","N/A    ","OK ","OK ",    000519.506,    -066.187,    -001.644,    0022.341,    0104.576
"FRM_AIS_EDR_2491.DAT           ",2005-12-21T04:41:05.72 ,"1/0083220060.59704",    0,   90,  305440,"AIS","B1","B2","B1","B2","PISd",0,0,0,0,"B1", 0,15,   0, 0,    0,"AIS","N/A    ","OK ","OK ",    000513.011,    -066.629,    -001.511,    0022.351,    0104.209